Weather History for Grand Rapids, MI

Change the Weather History Date:

Wednesday, January 9, 2013

  Actual Average Record
Temperature  
Mean Temperature 39 °F 24 °F  
Max Temperature 45 °F 31 °F 57 °F (1939)
Min Temperature 33 °F 18 °F -14 °F (1977)
Degree Days  
Heating Degree Days 26 40  
Month to date heating degree days 320 360  
Since 1 July heating degree days 2548 2809  
Cooling Degree Days 0 0  
Month to date cooling degree days 0 0  
Year to date cooling degree days 0 0  
Moisture  
Dew Point 29 °F    
Average Humidity 64    
Maximum Humidity 79    
Minimum Humidity 49    
Precipitation  
Precipitation T in 0.07 in 0.89 in (1946)
Month to date precipitation 0.15 0.69  
Year to date precipitation 0.15 0.69  
Snow  
Snow T in 0.70 in 8.00 in (1930)
Month to date snowfall 1.9 6.5  
Since 1 July snowfall 9.4 35.7  
Snow Depth 1.00 in    
Sea Level Pressure  
Sea Level Pressure 30.18 in    
Wind  
Wind Speed 17 mph (WSW)    
Max Wind Speed 33 mph    
Max Gust Speed 44 mph    
Visibility 10 miles    
Events      
T = Trace of Precipitation, MM = Missing Value Source: NWS Daily Summary

Daily Weather History Graph

Daily Weather History Graph

Search for Another Location

Airport:

Trip Planner

Search our weather history database for the weather conditions in past years. The results will help you decide how hot, cold, wet, or windy it might be!

Date:

Astronomy

Jan. 09, 2013 Rise Set
Actual Time 8:12 AM EST 5:26 PM EST
Civil Twilight 7:40 AM EST 5:58 PM EST
Nautical Twilight 7:05 AM EST 6:33 PM EST
Astronomical Twilight 6:31 AM EST 7:07 PM EST
Moon 5:50 AM EST (1/9) 3:27 PM EST (1/9)
Length of Visible Light 10h 17m
Length of Day
9h 14m
Waning Crescent, 6% of the Moon is Illuminated
Jan 9
Waning Crescent
Jan 11
New
Jan 18
First Quarter
Jan 26
Full
Feb 3
Last Quarter

Hourly Weather History & Observations

Time (EST) Temp. Windchill Dew Point Humidity Pressure Visibility Wind Dir Wind Speed Gust Speed Precip Events Conditions
12:53 AM 34.0 °F 26.0 °F 25.0 °F 70% 30.07 in 7.0 mi SSW 10.4 mph - N/A   Clear
1:53 AM 34.0 °F 24.2 °F 26.1 °F 73% 30.02 in 8.0 mi South 15.0 mph - N/A   Clear
2:53 AM 37.9 °F 29.6 °F 28.0 °F 68% 30.03 in 9.0 mi SSW 13.8 mph - N/A   Mostly Cloudy
3:53 AM 39.0 °F 30.3 °F 28.9 °F 67% 30.01 in 10.0 mi SSW 16.1 mph - N/A   Overcast
4:53 AM 39.0 °F 30.3 °F 30.9 °F 73% 29.99 in 9.0 mi SW 16.1 mph 23.0 mph 0.00 in   Overcast
5:53 AM 39.0 °F 31.8 °F 30.9 °F 73% 29.99 in 9.0 mi SW 11.5 mph - N/A   Partly Cloudy
6:53 AM 39.9 °F 30.0 °F 32.0 °F 73% 30.00 in 10.0 mi WSW 21.9 mph 28.8 mph N/A   Partly Cloudy
7:53 AM 39.0 °F 29.3 °F 33.1 °F 79% 30.05 in 9.0 mi WSW 19.6 mph 25.3 mph N/A   Mostly Cloudy
8:53 AM 39.0 °F 28.8 °F 32.0 °F 76% 30.10 in 9.0 mi WSW 21.9 mph 28.8 mph N/A   Mostly Cloudy
9:29 AM 39.2 °F 30.2 °F 32.0 °F 75% 30.10 in 8.0 mi WSW 17.3 mph - N/A   Scattered Clouds
9:53 AM 39.0 °F 29.9 °F 32.0 °F 76% 30.13 in 9.0 mi WSW 17.3 mph - N/A   Partly Cloudy
10:53 AM 41.0 °F 31.9 °F 32.0 °F 70% 30.14 in 10.0 mi WSW 19.6 mph - N/A   Partly Cloudy
11:53 AM 43.0 °F 34.5 °F 32.0 °F 65% 30.14 in 10.0 mi WSW 19.6 mph 32.2 mph N/A   Partly Cloudy
12:53 PM 45.0 °F 35.8 °F 32.0 °F 60% 30.14 in 10.0 mi WSW 26.5 mph 34.5 mph N/A   Partly Cloudy
1:53 PM 45.0 °F 35.8 °F 30.0 °F 56% 30.17 in 10.0 mi WSW 26.5 mph 42.6 mph N/A   Scattered Clouds
2:53 PM 45.0 °F 35.1 °F 28.0 °F 52% 30.19 in 10.0 mi WSW 31.1 mph 40.3 mph N/A   Partly Cloudy
3:53 PM 44.1 °F 34.4 °F 27.0 °F 51% 30.24 in 10.0 mi West 27.6 mph 39.1 mph N/A   Scattered Clouds
4:53 PM 42.1 °F 32.6 °F 27.0 °F 55% 30.28 in 10.0 mi West 23.0 mph 33.4 mph N/A   Scattered Clouds
5:53 PM 39.9 °F 30.5 °F 26.1 °F 58% 30.31 in 10.0 mi West 19.6 mph 34.5 mph N/A   Partly Cloudy
6:53 PM 39.0 °F 30.6 °F 27.0 °F 62% 30.36 in 10.0 mi West 15.0 mph - N/A   Partly Cloudy
7:53 PM 37.9 °F 30.0 °F 27.0 °F 65% 30.39 in 10.0 mi West 12.7 mph - N/A   Partly Cloudy
8:53 PM 37.0 °F 30.4 °F 27.0 °F 67% 30.42 in 10.0 mi West 9.2 mph - N/A   Partly Cloudy
9:53 PM 35.1 °F 29.3 °F 26.1 °F 70% 30.42 in 10.0 mi West 6.9 mph - N/A   Clear
10:53 PM 35.1 °F 30.1 °F 26.1 °F 70% 30.43 in 10.0 mi WNW 5.8 mph - N/A   Clear
11:53 PM 35.1 °F 30.1 °F 26.1 °F 70% 30.43 in 10.0 mi WNW 5.8 mph - N/A   Clear